This demonstration page uses our WeatherBlox Daily Observations layout. Learn more.

Left ArrowRight Arrow

36.17497, -115.13722

Hourly Observations for July 1, 2021

Temp ( °F °C ) Dew Point ( °F °C ) Humidity (%) Winds ( mph kmh ) Pressure ( in mb ) Visibility ( mi km ) Precip ( " mm )
12:53 am 00:53 Clear 85 29.4 58 14.4 40 40 Calm 29.84 1011 10 16 0.00 0.00
1:53 am 01:53 Clear 85 29.4 57 13.9 39 39 S 3 6 29.83 1010 10 16 0.00 0.00
2:53 am 02:53 Clear 83 28.3 57 13.9 41 41 Calm 29.83 1010 10 16 0.00 0.00
3:53 am 03:53 Clear 81 27.2 57 13.9 44 44 NW 6 9 29.83 1010 10 16 0.00 0.00
4:53 am 04:53 Clear 80 26.7 57 13.9 45 45 NNW 3 6 29.84 1011 10 16 0.00 0.00
5:53 am 05:53 Sunny 79 26.1 57 13.9 47 47 WNW 3 6 29.85 1011 10 16 0.00 0.00
6:53 am 06:53 Sunny 82 27.8 57 13.9 42 42 Calm 29.87 1012 10 16 0.00 0.00
7:53 am 07:53 Sunny 85 29.4 58 14.4 40 40 ESE 3 6 29.88 1012 10 16 0.00 0.00
8:53 am 08:53 Sunny 89 31.7 56 13.3 33 33 E 8 13 29.88 1012 10 16 0.00 0.00
9:53 am 09:53 Sunny 90 32.2 56 13.3 32 32 SE 6 9 29.88 1012 10 16 0.00 0.00
10:53 am 10:53 Sunny 95 35 54 12.2 25 25 VRB 6 9 29.87 1012 10 16 0.00 0.00
11:53 am 11:53 Sunny 98 36.7 52 11.1 21 21 VRB 3 6 29.85 1011 10 16 0.00 0.00
12:53 pm 12:53 Sunny 101 38.3 48 8.9 17 17 VRB 5 7 29.82 1010 10 16 0.00 0.00
1:53 pm 13:53 Sunny 103 39.4 39 3.9 11 11 WSW 6 9 29.78 1009 10 16 0.00 0.00
2:53 pm 14:53 Sunny 105 40.6 32 0 8 8 SSE 8 13 29.76 1008 10 16 0.00 0.00
3:34 pm 15:34 Sunny 106 41.1 32 0 8 8 SW 10 17 29.56 1001 10 16 0.00 0.00
3:53 pm 15:53 Sunny 106 41.1 31 -0.6 7 7 SW 9 15 29.73 1007 10 16 0.00 0.00
4:53 pm 16:53 Sunny 106 41.1 30 -1.1 7 7 SW 10 17 29.71 1006 10 16 0.00 0.00
5:53 pm 17:53 Sunny 106 41.1 29 -1.7 7 7 WSW 14 22 29.70 1006 10 16 0.00 0.00
6:53 pm 18:53 Sunny 105 40.6 29 -1.7 7 7 SSW 14 22 29.70 1006 10 16 0.00 0.00
7:53 pm 19:53 Sunny 103 39.4 29 -1.7 7 7 WSW 9 15 29.71 1006 10 16 0.00 0.00
8:53 pm 20:53 Clear 100 37.8 31 -0.6 9 9 SW 8 13 29.72 1007 10 16 0.00 0.00
9:53 pm 21:53 Clear 97 36.1 32 0 10 10 SW 6 9 29.74 1007 10 16 0.00 0.00
10:53 pm 22:53 Clear 94 34.4 32 0 11 11 W 5 7 29.75 1008 10 16 0.00 0.00
11:53 pm 23:53 Clear 93 33.9 33 0.6 12 12 Calm 29.75 1008 10 16 0.00 0.00

Powered by AerisWeather